Location: Bacharowice
(49.9333°N, 19.5833°E)
Time: 23:45:17
(UTC+00:00)

ATLAS CENTAUR R/B - Pass Details

Date: 11 May 2021
Orbit: 472 x 671 km, 64.6° (Epoch: 13 June)

Event Time Altitude Azimuth Distance (km) Brightness Sun altitude
Exits shadow 22:02:11 14° 83° (E) 1,469 3.5 -21.5°
Drops below altitude 10° 22:03:04 10° 72° (ENE) 1,691 3.9 -21.5°
Sets 22:05:47 0° 52° (NE) 2,611 5.2 -21.6°
